STARLINK-37925

Last updated on Sun Aug 09 2026 00:02:04 GMT+0000 (Coordinated Universal Time)

1 69962U 26157V 26220.58335648 -.02353656 00000+0 -54985-1 0 9990 2 69962 53.1597 174.5815 0001370 89.7788 161.4872 15.45051321 6083
UTC large
Height (km)
Speed (km/s)
/
Latitude / Longitude
Inclination (degrees)
Orbital Period (minutes)
Azimuth
Elevation
Range (km)
Doppler Factor

Next 0 passes for location: London (51.5072 / 0.1276)

No passes found over London.
STARLINK-37925